Tracking 19651 objects as of 23-Apr-2019
HD Live streaming from Space Station
objects crossing your sky now

METEOR 2-5 DEB

Track METEOR 2-5 DEB now!
10-day predictions


NORAD ID: 38272
Int'l Code: 1979-095BS
Perigee: 826.1 km
Apogee: 867.1 km
Inclination: 81.2 °
Period: 101.7 minutes
Semi major axis: 7217 km
RCS: 0.003 m2 (small)
Launch date: October 31, 1979
Source: Commonwealth of Independent States (former USSR) (CIS)
Launch site: PLESETSK MISSILE AND SPACE COMPLEX (PKMTR)

Note: This is SATELLITE DEBRIS
aabbcc
Your satellite tracking list
Your tracking list is empty




NASA's NSSDC Master Catalog

Two Line Element Set (TLE):
1 38272U 79095BS  19103.67224715  .00000952  00000-0  47596-3 0  9990
2 38272  81.2019 235.2567 0028352  63.6117 357.1142 14.15840447404390
Source of the keplerian elements: AFSPC